RYR61C LIRI-LICR

Flight info

Callsign RYR61C
Flight time 0h 54m
Altitude 19000
Route POLIT M620 CDC L137 GIMEL
Aircraft B738/M-SDE2E3FGHIRWXY/LB1

Departure

Time 2026-05-04 15:41
Airport Salerno Costa d'Amalfi Airport (LIRI)

Arrival

Time 2026-05-04 16:35
Airport Reggio Calabria Airport (LICR)
Time Latitude Longitude Altitude Speed Heading
2026-05-04 15:08 40.62003 14.91916 83 ft 0 kts 142°
2026-05-04 15:32 40.62004 14.91922 88 ft 1 kts 86°
2026-05-04 15:33 40.62022 14.91905 86 ft 5 kts 308°
2026-05-04 15:34 40.62115 14.91829 83 ft 5 kts 48°
2026-05-04 15:34 40.62136 14.91864 83 ft 5 kts 52°
2026-05-04 15:34 40.62157 14.91901 85 ft 0 kts 52°
2026-05-04 15:35 40.62164 14.91912 85 ft 3 kts 52°
2026-05-04 15:35 40.62187 14.91911 84 ft 4 kts 331°
2026-05-04 15:35 40.62207 14.91891 83 ft 4 kts 321°
2026-05-04 15:36 40.62216 14.91882 85 ft 0 kts 322°
2026-05-04 15:37 40.62217 14.91882 83 ft 1 kts 322°
2026-05-04 15:38 40.62242 14.91856 83 ft 6 kts 323°
2026-05-04 15:38 40.62277 14.91821 83 ft 6 kts 323°
2026-05-04 15:38 40.62305 14.91793 85 ft 3 kts 320°
2026-05-04 15:38 40.62302 14.91766 87 ft 3 kts 233°
2026-05-04 15:39 40.62300 14.91763 86 ft 0 kts 229°
2026-05-04 15:40 40.62146 14.91509 87 ft 76 kts 232°
2026-05-04 15:40 40.61670 14.90705 87 ft 145 kts 232°
2026-05-04 15:41 40.60980 14.89559 555 ft 168 kts 231°
2026-05-04 15:41 40.60223 14.88366 1382 ft 175 kts 230°
2026-05-04 15:41 40.59396 14.87048 1810 ft 205 kts 231°
2026-05-04 15:41 40.58456 14.85550 2324 ft 217 kts 231°
2026-05-04 15:42 40.57486 14.84004 2962 ft 223 kts 231°
2026-05-04 15:42 40.56434 14.82332 3230 ft 252 kts 231°
2026-05-04 15:42 40.55288 14.80515 3919 ft 262 kts 230°
2026-05-04 15:42 40.54117 14.78661 4860 ft 264 kts 230°
2026-05-04 15:43 40.52934 14.76792 5740 ft 268 kts 230°
2026-05-04 15:43 40.51728 14.74888 6576 ft 274 kts 230°
2026-05-04 15:43 40.50499 14.72949 7417 ft 276 kts 230°
2026-05-04 15:43 40.49266 14.71005 8291 ft 278 kts 230°
2026-05-04 15:44 40.48017 14.69038 9151 ft 281 kts 231°
2026-05-04 15:44 40.46756 14.67063 10005 ft 284 kts 228°
2026-05-04 15:44 40.45105 14.65602 10586 ft 298 kts 199°
2026-05-04 15:44 40.42959 14.65356 10776 ft 326 kts 171°
2026-05-04 15:45 40.40728 14.66339 10971 ft 350 kts 153°
2026-05-04 15:45 40.38647 14.68060 11451 ft 362 kts 145°
2026-05-04 15:45 40.36605 14.70039 12169 ft 366 kts 143°
2026-05-04 15:45 40.34578 14.72081 12930 ft 369 kts 143°
2026-05-04 15:46 40.32504 14.74165 13660 ft 374 kts 143°
2026-05-04 15:46 40.30417 14.76234 14310 ft 378 kts 144°
2026-05-04 15:46 40.28318 14.78284 14902 ft 384 kts 144°
2026-05-04 15:46 40.26863 14.79691 15297 ft 387 kts 144°
2026-05-04 15:47 40.24673 14.81795 15900 ft 392 kts 145°
2026-05-04 15:47 40.22453 14.83914 16488 ft 397 kts 145°
2026-05-04 15:47 40.20200 14.86058 17068 ft 402 kts 145°
2026-05-04 15:47 40.17920 14.88223 17627 ft 408 kts 145°
2026-05-04 15:48 40.15611 14.90413 18209 ft 413 kts 145°
2026-05-04 15:48 40.13268 14.92633 18732 ft 417 kts 145°
2026-05-04 15:48 40.08501 14.97144 19126 ft 432 kts 145°
2026-05-04 15:49 40.06057 14.99454 19137 ft 436 kts 145°
2026-05-04 15:49 40.03597 15.01779 19123 ft 433 kts 145°
2026-05-04 15:49 40.01165 15.04076 19125 ft 431 kts 145°
2026-05-04 15:49 39.98739 15.06364 19131 ft 430 kts 145°
2026-05-04 15:50 39.96307 15.08655 19133 ft 430 kts 145°
2026-05-04 15:50 39.93915 15.10907 19133 ft 430 kts 145°
2026-05-04 15:50 39.91479 15.13197 19140 ft 431 kts 145°
2026-05-04 15:50 39.89047 15.15482 19138 ft 433 kts 145°
2026-05-04 15:51 39.86599 15.17781 19140 ft 434 kts 145°
2026-05-04 15:51 39.84153 15.20074 19142 ft 434 kts 145°
2026-05-04 15:51 39.81698 15.22375 19140 ft 435 kts 146°
2026-05-04 15:51 39.79234 15.24682 19141 ft 435 kts 146°
2026-05-04 15:52 39.76777 15.26982 19146 ft 435 kts 146°
2026-05-04 15:52 39.74322 15.29277 19146 ft 435 kts 146°
2026-05-04 15:52 39.71868 15.31568 19148 ft 435 kts 145°
2026-05-04 15:52 39.69478 15.33979 19147 ft 435 kts 141°
2026-05-04 15:53 39.67166 15.36522 19155 ft 435 kts 140°
2026-05-04 15:53 39.64896 15.39102 19160 ft 435 kts 140°
2026-05-04 15:53 39.62621 15.41703 19156 ft 434 kts 140°
2026-05-04 15:53 39.60348 15.44287 19157 ft 434 kts 140°
2026-05-04 15:54 39.58067 15.46859 19162 ft 434 kts 140°
2026-05-04 15:54 39.55782 15.49419 19165 ft 434 kts 140°
2026-05-04 15:54 39.53495 15.51969 19165 ft 434 kts 140°
2026-05-04 15:54 39.51202 15.54519 19168 ft 434 kts 140°
2026-05-04 15:55 39.48942 15.57028 19169 ft 434 kts 140°
2026-05-04 15:55 39.46619 15.59605 19171 ft 434 kts 140°
2026-05-04 15:55 39.44360 15.62109 19176 ft 434 kts 140°
2026-05-04 15:55 39.42038 15.64681 19177 ft 434 kts 140°
2026-05-04 15:56 39.39770 15.67192 19176 ft 434 kts 140°
2026-05-04 15:56 39.37476 15.69729 19178 ft 434 kts 140°
2026-05-04 15:56 39.35177 15.72270 19176 ft 434 kts 140°
2026-05-04 15:56 39.32882 15.74805 19185 ft 434 kts 140°
2026-05-04 15:57 39.30588 15.77336 19184 ft 434 kts 140°
2026-05-04 15:57 39.28294 15.79863 19184 ft 434 kts 140°
2026-05-04 15:57 39.25985 15.82394 19185 ft 434 kts 141°
2026-05-04 15:57 39.23675 15.84902 19185 ft 434 kts 141°
2026-05-04 15:58 39.21365 15.87404 19187 ft 434 kts 141°
2026-05-04 15:58 39.19052 15.89909 19187 ft 434 kts 141°
2026-05-04 15:58 39.16773 15.92378 19191 ft 433 kts 141°
2026-05-04 15:58 39.14466 15.94877 19181 ft 433 kts 141°
2026-05-04 15:59 39.12152 15.97382 19176 ft 433 kts 141°
2026-05-04 15:59 39.09847 15.99882 19172 ft 433 kts 141°
2026-05-04 15:59 39.07549 16.02380 19160 ft 433 kts 141°
2026-05-04 15:59 39.05249 16.04879 19156 ft 433 kts 141°
2026-05-04 16:00 39.02941 16.07386 19150 ft 433 kts 141°
2026-05-04 16:00 39.00640 16.09883 19144 ft 433 kts 141°
2026-05-04 16:00 38.98338 16.12378 19137 ft 433 kts 141°
2026-05-04 16:00 38.96040 16.14865 19133 ft 433 kts 141°
2026-05-04 16:01 38.93736 16.17357 19133 ft 433 kts 141°
2026-05-04 16:01 38.91431 16.19848 19129 ft 433 kts 141°
2026-05-04 16:01 38.89125 16.22338 19133 ft 433 kts 141°
2026-05-04 16:01 38.86830 16.24816 19125 ft 427 kts 141°
2026-05-04 16:02 38.84605 16.27216 19116 ft 410 kts 141°
2026-05-04 16:02 38.82454 16.29532 19038 ft 397 kts 141°
2026-05-04 16:02 38.78030 16.33370 18160 ft 388 kts 165°
2026-05-04 16:03 38.75370 16.33799 17534 ft 385 kts 186°
2026-05-04 16:03 38.72735 16.33110 16905 ft 381 kts 203°
2026-05-04 16:03 38.70452 16.31497 16184 ft 381 kts 220°
2026-05-04 16:03 38.68406 16.29359 15653 ft 378 kts 222°
2026-05-04 16:04 38.66399 16.27156 14908 ft 382 kts 223°
2026-05-04 16:04 38.62380 16.22737 13421 ft 376 kts 222°
2026-05-04 16:04 38.60405 16.20596 12623 ft 370 kts 221°
2026-05-04 16:05 38.58465 16.18509 12113 ft 357 kts 221°
2026-05-04 16:05 38.56582 16.16490 11663 ft 351 kts 221°
2026-05-04 16:05 38.52864 16.12513 10862 ft 345 kts 221°
2026-05-04 16:06 38.51056 16.10582 10723 ft 334 kts 221°
2026-05-04 16:06 38.46507 16.05631 10311 ft 310 kts 230°
2026-05-04 16:07 38.45092 16.02547 10138 ft 296 kts 247°
2026-05-04 16:07 38.42676 15.95718 9517 ft 274 kts 247°
2026-05-04 16:08 38.41894 15.93514 9062 ft 273 kts 247°
2026-05-04 16:08 38.39517 15.86879 8128 ft 274 kts 246°
2026-05-04 16:09 38.37927 15.82471 7543 ft 272 kts 246°
2026-05-04 16:09 38.36340 15.78085 6882 ft 274 kts 246°
2026-05-04 16:10 38.34759 15.73723 6282 ft 272 kts 246°
2026-05-04 16:11 38.32392 15.67208 5399 ft 268 kts 246°
2026-05-04 16:11 38.31610 15.65055 5139 ft 266 kts 246°
2026-05-04 16:12 38.29384 15.58948 4845 ft 238 kts 245°
2026-05-04 16:12 38.26607 15.54677 4299 ft 212 kts 191°
2026-05-04 16:13 38.23735 15.54776 3744 ft 204 kts 175°
2026-05-04 16:13 38.21155 15.55969 3215 ft 197 kts 152°
2026-05-04 16:14 38.18758 15.57556 2675 ft 194 kts 152°
2026-05-04 16:14 38.16451 15.59067 2129 ft 175 kts 153°
2026-05-04 16:15 38.13498 15.60992 1473 ft 146 kts 154°
2026-05-04 16:16 38.11694 15.62181 1066 ft 147 kts 153°
2026-05-04 16:16 38.08944 15.63975 515 ft 159 kts 154°
2026-05-04 16:17 38.06773 15.64927 1923 ft 174 kts 193°
2026-05-04 16:18 38.02958 15.63416 2965 ft 199 kts 196°
2026-05-04 16:18 38.01611 15.62955 2997 ft 202 kts 195°
2026-05-04 16:19 37.98756 15.59586 2989 ft 226 kts 278°
2026-05-04 16:19 38.00522 15.56421 3005 ft 230 kts 322°
2026-05-04 16:20 38.04351 15.52814 3358 ft 224 kts 324°
2026-05-04 16:20 38.07296 15.51564 3873 ft 231 kts 354°
2026-05-04 16:21 38.12078 15.51837 4022 ft 228 kts 14°
2026-05-04 16:22 38.15123 15.52860 3666 ft 220 kts 21°
2026-05-04 16:22 38.17423 15.56872 3191 ft 182 kts 93°
2026-05-04 16:23 38.15034 15.59967 2301 ft 170 kts 152°
2026-05-04 16:24 38.10963 15.62629 2859 ft 183 kts 152°
2026-05-04 16:25 38.08323 15.64300 3958 ft 229 kts 155°
2026-05-04 16:26 38.03487 15.61993 4178 ft 219 kts 270°
2026-05-04 16:26 38.06567 15.58430 4511 ft 256 kts
2026-05-04 16:27 38.10117 15.59476 4500 ft 265 kts 13°
2026-05-04 16:28 38.15440 15.61100 4486 ft 260 kts 13°
2026-05-04 16:28 38.20678 15.62697 4493 ft 259 kts 13°
2026-05-04 16:29 38.27720 15.64195 4479 ft 246 kts 336°
2026-05-04 16:30 38.29069 15.58940 4498 ft 223 kts 263°
2026-05-04 16:31 38.27824 15.55407 4501 ft 222 kts 219°
2026-05-04 16:31 38.23323 15.54816 3673 ft 215 kts 172°
2026-05-04 16:32 38.19414 15.57118 2833 ft 204 kts 152°
2026-05-04 16:33 38.16941 15.58746 2239 ft 192 kts 152°
2026-05-04 16:33 38.15063 15.59972 1785 ft 174 kts 154°
2026-05-04 16:34 38.12790 15.61452 1300 ft 148 kts 154°
2026-05-04 16:34 38.11878 15.62043 1067 ft 147 kts 154°
2026-05-04 16:35 38.09454 15.63642 548 ft 148 kts 153°
2026-05-04 16:35 38.07081 15.65183 40 ft 45 kts 153°
2026-05-04 16:36 38.06945 15.65251 36 ft 6 kts 171°
2026-05-04 16:36 38.06954 15.65278 36 ft 3 kts 326°
2026-05-04 16:37 38.07051 15.65203 39 ft 12 kts 332°
2026-05-04 16:37 38.07101 15.65226 40 ft 9 kts 94°
2026-05-04 16:37 38.07048 15.65383 37 ft 10 kts 109°
2026-05-04 16:38 38.07155 15.65374 46 ft 8 kts 326°
2026-05-04 16:39 38.07283 15.65287 49 ft 4 kts 347°
2026-05-04 16:39 38.07311 15.65315 49 ft 0 kts 66°
2026-05-04 16:40 38.07310 15.65346 49 ft 2 kts 138°
2026-05-04 16:40 38.07303 15.65350 45 ft 0 kts 160°
2026-05-04 16:41 38.07300 15.65347 46 ft 0 kts 200°